• MPC Preparation (Info)

  • MPEC 2015-E48 : 2015 EW

    The following Minor Planet Electronic Circular may be linked-to from your own Web pages, but must not otherwise be redistributed electronically.

    A form allowing access to any MPEC is at the bottom of this page.


    Read MPEC 2015-E47 Read MPEC 2015-E49


    M.P.E.C. 2015-E48                                Issued 2015 Mar. 13, 14:57 UT
    
         The Minor Planet Electronic Circulars contain information on unusual
             minor planets and routine data on comets.  They are published
       on behalf of Commission 20 of the International Astronomical Union by the
              Minor Planet Center, Smithsonian Astrophysical Observatory,
                              Cambridge, MA 02138, U.S.A.
    
                 Prepared using the Tamkin Foundation Computer Network
    
                                  MPC@CFA.HARVARD.EDU
                URL https://www.minorplanetcenter.net/    ISSN 1523-6714
    
                                        2015 EW
    
    Observations:
         K15E00W* C2015 03 11.36881 11 45 42.83 +13 54 37.5          20.1 VqEE048G96
         K15E00W  C2015 03 11.37508 11 45 43.61 +13 56 12.4          20.5 VqEE048G96
         K15E00W  C2015 03 11.38134 11 45 44.50 +13 57 47.1          20.1 VqEE048G96
         K15E00W  C2015 03 11.38762 11 45 45.25 +13 59 22.4          19.8 VqEE048G96
         K15E00W KC2015 03 11.43913 11 45 52.04 +14 12 23.5          20.0 RoEE048291
         K15E00W KC2015 03 11.43987 11 45 52.13 +14 12 34.9          20.0 RoEE048291
         K15E00W KC2015 03 11.44062 11 45 52.25 +14 12 46.0          20.0 RoEE048291
         K15E00W  C2015 03 11.44752 11 45 53.09 +14 14 29.6          21.1 VqEE048G96
         K15E00W  C2015 03 11.44785 11 45 53.19 +14 14 34.8          19.9 VqEE048G96
         K15E00W  C2015 03 11.44850 11 45 53.23 +14 14 43.9          20.9 VqEE048G96
         K15E00W KC2015 03 12.21101011 48 00.26 +17 29 21.1          19.9 VuEE048H21
         K15E00W KC2015 03 12.21523411 48 00.81 +17 30 26.2          20.1 VuEE048H21
         K15E00W KC2015 03 12.26901 11 48 08.79 +17 44 15.6          19.4 RqEE048H36
         K15E00W KC2015 03 12.27791 11 48 10.06 +17 46 34.1          20.3 RqEE048H36
         K15E00W KC2015 03 12.29875 11 48 12.90 +17 51 56.6          20.1 RqEE048H36
         K15E00W KC2015 03 12.30553 11 48 13.86 +17 53 39.7          19.5 RqEE048H36
         K15E00W !C2015 03 13.23815 11 50 54.92 +21 53 59.1                tEE048673
         K15E00W !C2015 03 13.25061 11 50 56.71 +21 57 12.8          19.6 RtEE048673
         K15E00W  C2015 03 13.38763 11 51 15.96 +22 32 40.6          20.8 VqEE048G96
         K15E00W  C2015 03 13.38802 11 51 16.02 +22 32 46.2          20.5 VqEE048G96
         K15E00W  C2015 03 13.38840 11 51 16.08 +22 32 52.0          20.4 VqEE048G96
         K15E00W  C2015 03 13.38879 11 51 16.12 +22 32 59.6          20.1 VqEE048G96
    
    Observer details:
    291 LPL/Spacewatch II.  Observer T. H. Bressi.  1.8-m f/2.7 reflector + CCD.
    673 Table Mountain Observatory, Wrightwood.  Observer J. Pittichova.  0.60-m
        f/16 Ritchey-Chretien + CCD.
    G96 Mt. Lemmon Survey.  Observers R. A. Kowalski, J. A. Johnson, R. G. Matheny.
        Measurers E. J. Christensen, D. C. Fuls, A. R. Gibbs, A. D. Grauer,
        R. E. Hill, J. A. Johnson, R. A. Kowalski, S. M. Larson, R. G. Matheny,
        F. C. Shelly.  1.5-m reflector + CCD.
    H21 Astronomical Research Observatory, Westfield.  Observer R. Holmes.
        Measurers L. Buzzi, T. Linder, S. Foglia, T. Vorobjov.  0.81-m f/4.0
        astrograph + CCD.
    H36 Sandlot Observatory, Scranton.  Observer G. Hug.  0.56-m reflector + CCD.
    
    Orbital elements:
    2015 EW                                                  Earth MOID = 0.1075 AU
    Epoch 2015 June 27.0 TT = JDT 2457200.5                 MPC
    M  28.72058              (2000.0)            P               Q
    n   0.75705591     Peri.   71.39776     -0.48792443     +0.86809721
    a   1.1922960      Node   168.06709     -0.86927727     -0.49274336
    e   0.1577290      Incl.   26.20575     +0.07928923     -0.06009340
    P   1.30           H   24.1           G   0.15           U   8
    Residuals in seconds of arc
    150311 G96  0.1+  0.5+    150311 G96  0.2+  0.1-    150313 673 (0.7+  2.3-)
    150311 G96  0.2-  0.3+    150311 G96  0.5-  0.8-    150313 673 (0.2-  2.6-)
    150311 G96  1.0+  0.1+    150312 H21  0.3-  0.0     150313 G96  0.0   0.1-
    150311 G96  0.2+  0.2+    150312 H21  0.8-  0.1-    150313 G96  0.0   0.5-
    150311 291  0.0   0.1-    150312 H36  0.4-  1.1-    150313 G96  0.1+  0.6-
    150311 291  0.1-  0.1+    150312 H36  0.4+  0.1+    150313 G96  0.1-  1.0+
    150311 291  0.1+  0.1-    150312 H36  0.4+  1.3+
    150311 G96  0.6-  0.3-    150312 H36  0.9+  0.1-
    
    Ephemeris:
    2015 EW                  a,e,i = 1.19, 0.16, 26                  q = 1.0042
    Date    TT    R. A. (2000) Decl.     Delta      r     Elong.  Phase     V
    2015 02 11    11 02 01.8 -38 14 06   0.2856  1.1700   123.8    44.5    23.4
    ...
    2015 02 26    11 20 03.5 -25 12 02   0.1705  1.1324   144.0    30.9    21.9
    ...
    2015 03 06    11 33 29.7 -06 22 38   0.1244  1.1128   165.7    12.7    20.6
    ...
    2015 03 12    11 47 24.3 +16 35 35   0.1080  1.0986   166.0    12.6    20.2
    2015 03 13    11 50 10.7 +20 52 48   0.1074  1.0963   161.7    16.6    20.3
    2015 03 14    11 53 06.4 +25 10 12   0.1076  1.0939   157.2    20.6    20.5
    ...
    2015 03 20    12 14 40.6 +48 14 53   0.1209  1.0804   132.0    43.2    21.4
    ...
    2015 03 28    12 58 40.3 +67 10 09   0.1609  1.0634   109.9    61.9    22.5
    ...
    2015 04 12    15 26 33.6 +79 31 36   0.2537  1.0361    90.5    75.3    23.8
    
    A. U. Tomatic                (C) Copyright 2015 MPC           M.P.E.C. 2015-E48
    

    Read MPEC 2015-E47 Read MPEC 2015-E49


    MPEC number:

    Enter an MPEC number in one of the following forms:

    • 1997-B01 (the full form)
    • J97B01 (the packed version of the full form)
    • B01 (the abbreviated form)